Riverside, CA

5:50 AM PST on January 17, 2018 (GMT -0800)
Riverside Municipal

Weather History for KRAL - October, 2012

Change the Weather History Date:

Wednesday, October 10, 2012

  Actual Average Record
Temperature  
Mean Temperature 68 °F 70 °F  
Max Temperature 76 °F 83 °F 106 °F (1991)
Min Temperature 59 °F 57 °F 36 °F (1949)
Degree Days  
Heating Degree Days 0 0  
Month to date heating degree days 0 0  
Since 1 July heating degree days 0 2  
Cooling Degree Days 3 5  
Month to date cooling degree days 98 65  
Year to date cooling degree days 2086 1657  
Growing Degree Days 17 (Base 50)    
Moisture  
Dew Point 53 °F    
Average Humidity 63    
Maximum Humidity 84    
Minimum Humidity 41    
Precipitation  
Precipitation 0.00 in 0.01 in 0.67 in (1960)
Month to date precipitation T 0.04  
Year to date precipitation 2.86 9.63  
Since 1 July precipitation 0.01  
Snow  
Snow 0.00 in - - ()
Month to date snowfall 0.0  
Year to date snowfall 0.0  
Snow Depth 0.00 in    
Sea Level Pressure  
Sea Level Pressure 29.93 in    
Wind  
Wind Speed 4 mph (West)    
Max Wind Speed 15 mph    
Max Gust Speed 21 mph    
Visibility 10 miles    
Events      
T = Trace of Precipitation, MM = Missing Value Source: NWS Daily Summary

Daily Weather History Graph

Daily Weather History Graph

Search for Another Location

Airport or City:

Trip Planner

Search our weather history database for the weather conditions in past years. The results will help you decide how hot, cold, wet, or windy it might be!

Date:

Astronomy

Oct. 10, 2012 Rise Set
Actual Time 6:51 AM PDT 6:21 PM PDT
Civil Twilight 6:26 AM PDT 6:46 PM PDT
Nautical Twilight 5:57 AM PDT 7:15 PM PDT
Astronomical Twilight 5:28 AM PDT 7:44 PM PDT
Moon 1:45 AM PDT (10/10) 3:14 PM PDT (10/10)
Length of Visible Light 12h 20m
Length of Day
11h 29m
Waning Crescent, 26% of the Moon is Illuminated
Oct 10
Waning Crescent
Oct 15
New
Oct 21
First Quarter
Oct 29
Full
Nov 6
Last Quarter

Hourly Weather History & Observations

Time (PDT) Temp. Dew Point Humidity Pressure Visibility Wind Dir Wind Speed Gust Speed Precip Events Conditions
12:53 AM 64.9 °F 55.9 °F 73% 29.94 in 10.0 mi West 4.6 mph - N/A   Overcast
1:53 AM 64.0 °F 55.0 °F 73% 29.95 in 10.0 mi West 4.6 mph - N/A   Mostly Cloudy
2:53 AM 63.0 °F 54.0 °F 72% 29.94 in 10.0 mi West 4.6 mph - N/A   Overcast
3:53 AM 62.1 °F 55.0 °F 78% 29.93 in 10.0 mi Calm Calm - N/A   Mostly Cloudy
4:53 AM 61.0 °F 55.9 °F 83% 29.94 in 10.0 mi West 5.8 mph - N/A   Overcast
5:53 AM 61.0 °F 55.9 °F 83% 29.95 in 10.0 mi Calm Calm - N/A   Partly Cloudy
6:53 AM 60.1 °F 55.9 °F 86% 29.95 in 10.0 mi Calm Calm - N/A   Scattered Clouds
7:23 AM 59.0 °F 55.4 °F 88% 29.99 in 10.0 mi Calm Calm - N/A   Mostly Cloudy
7:53 AM 61.0 °F 55.9 °F 83% 29.96 in 10.0 mi Calm Calm - N/A   Mostly Cloudy
8:18 AM 62.6 °F 55.4 °F 77% 30.00 in 10.0 mi Calm Calm - N/A   Scattered Clouds
8:41 AM 62.6 °F 55.4 °F 77% 30.00 in 10.0 mi Calm Calm - N/A   Mostly Cloudy
8:53 AM 63.0 °F 55.9 °F 78% 29.97 in 10.0 mi Calm Calm - N/A   Mostly Cloudy
9:53 AM 66.0 °F 55.0 °F 68% 29.97 in 10.0 mi Calm Calm - N/A   Mostly Cloudy
10:42 AM 69.8 °F 51.8 °F 53% 30.00 in 10.0 mi Calm Calm - N/A   Mostly Cloudy
10:53 AM 69.1 °F 52.0 °F 54% 29.95 in 10.0 mi South 4.6 mph - N/A   Mostly Cloudy
11:53 AM 70.0 °F 50.0 °F 49% 29.94 in 10.0 mi Calm Calm - N/A   Mostly Cloudy
12:53 PM 71.1 °F 50.0 °F 47% 29.91 in 10.0 mi Variable 6.9 mph - N/A   Mostly Cloudy
1:53 PM 72.0 °F 50.0 °F 46% 29.88 in 10.0 mi Calm Calm - N/A   Mostly Cloudy
2:53 PM 73.0 °F 48.9 °F 42% 29.86 in 10.0 mi Variable 6.9 mph - N/A   Mostly Cloudy
3:53 PM 75.0 °F 50.0 °F 41% 29.85 in 10.0 mi WSW 15.0 mph - N/A   Mostly Cloudy
4:53 PM 72.0 °F 51.1 °F 48% 29.85 in 10.0 mi WSW 15.0 mph 20.7 mph N/A   Scattered Clouds
5:53 PM 69.1 °F 51.1 °F 53% 29.85 in 10.0 mi West 11.5 mph - N/A   Scattered Clouds
6:53 PM 66.0 °F 52.0 °F 60% 29.87 in 10.0 mi West 10.4 mph - N/A   Scattered Clouds
7:53 PM 64.0 °F 53.1 °F 67% 29.88 in 10.0 mi West 8.1 mph - N/A   Scattered Clouds
8:53 PM 64.0 °F 53.1 °F 67% 29.89 in 10.0 mi West 10.4 mph - N/A   Mostly Cloudy
9:53 PM 63.0 °F 53.1 °F 70% 29.90 in 10.0 mi West 6.9 mph - N/A   Overcast
10:53 PM 62.1 °F 53.1 °F 72% 29.91 in 10.0 mi West 3.5 mph - N/A   Overcast
11:53 PM 61.0 °F 52.0 °F 72% 29.90 in 10.0 mi Calm Calm - N/A   Mostly Cloudy